Flag for U.S.A. Weather past 2 weeks in Abilene, Texas, U.S.A.

Now
35 °F

Fog.


Feels Like: 31 °F
Forecast: 29 / 41 °F
Wind: 5 mph from Northeast

Location: Abilene Regional Airport

Current Time: Mar 2, 2015 at 3:10:05 PM

Latest Report: Mar 2, 2015 at 1:52 PM


Visibility: 6 mi

Pressure: 30.26 "Hg

Humidity: 88%

Dew point: 32 °F

Location of AbileneLocation

Historic Weather in Abilene — Graph

°F

Abilene temperature yesterday

Maximum temperature yesterday: 32 °F (at 3:52 PM)
Minimum temperature yesterday: 29 °F (at 12:52 AM)
Average temperature yesterday: 31 °F

Past Weeks' High & Low Weather Summary

 TemperatureHumidityPressure
High80 °F (Feb 20, 4:52 PM)100% (Feb 22, 10:52 AM)30.61 "Hg (Feb 22, 10:52 AM)
Low19 °F (Feb 27, 6:52 PM)23% (Feb 18, 5:52 PM)29.57 "Hg (Feb 20, 4:52 PM)
Average38 °F74%30.17 "Hg
* Reported Feb 15 1:52 PM — Mar 2 1:52 PM, Abilene, Weather by CustomWeather, © 2015

Note: Actual official high and low records may vary slightly from our data, if they occured in-between our weather recording intervals... More about our weather records

Advertising

Abilene weather history for previous 24 hours

 ConditionsComfort  
Time TempWeatherWind HumidityBarometerVisibility
1:52 PM
Mon, Mar 2
35 °FFog.5 mph88%30.26 "Hg6 mi
12:52 PM32 °FIce fog.5 mph92%30.32 "Hg3 mi
11:52 AM31 °FIce fog.8 mph92%30.38 "Hg2 mi
11:02 AM31 °FIce fog.7 mph92%30.37 "Hg2 mi
10:52 AM31 °FIce fog.6 mph89%30.39 "Hg3 mi
9:52 AM30 °FIce fog.7 mph92%30.41 "Hg3 mi
8:52 AM30 °FIce fog.8 mph92%30.38 "Hg3 mi
7:52 AM30 °FIce fog.7 mph92%30.41 "Hg2 mi
6:52 AM30 °FIce fog.12 mph96%30.39 "Hg2 mi
5:52 AM31 °FIce fog.9 mph92%30.38 "Hg3 mi
4:52 AM31 °FIce fog.12 mph92%30.39 "Hg3 mi
3:52 AM32 °FIce fog.10 mph92%30.39 "Hg4 mi
2:52 AM33 °FFog.6 mph92%30.40 "Hg6 mi
1:52 AM32 °FIce fog.7 mph96%30.39 "Hg6 mi
12:52 AM32 °FIce fog.8 mph96%30.41 "Hg4 mi
11:52 PM
Sun, Mar 1
32 °FLight freezing rain. Ice fog.9 mph96%30.44 "Hg3 mi
10:52 PM32 °FLow clouds.8 mph96%30.42 "Hg7 mi
9:52 PM32 °FIce fog.9 mph96%30.40 "Hg5 mi
8:52 PM32 °FIce fog.7 mph96%30.39 "Hg5 mi
8:01 PM32 °FIce fog.7 mph96%30.34 "Hg2 mi
6:52 PM32 °FLow clouds.5 mph92%30.34 "Hg7 mi
5:52 PM32 °FIce fog.7 mph92%30.33 "Hg6 mi
5:01 PM32 °FIce fog.7 mph92%30.29 "Hg2 mi
3:52 PM32 °FIce fog.8 mph92%30.32 "Hg1 mi
Weather by CustomWeather, © 2015

See weather overviewHow to use our weather pages